TimeEDT,TemperatureF,Dew PointF,Humidity,Sea Level PressureIn,VisibilityMPH,Wind Direction,Wind SpeedMPH,Gust SpeedMPH,PrecipitationIn,Events,Conditions,WindDirDegrees,DateUTC
1:56 AM,68.0,66.0,93,30.06,10.0,NE,6.9,-,N/A,,Overcast,40,2013-08-16 05:56:00
2:56 AM,68.0,64.9,90,30.04,7.0,NNE,5.8,-,N/A,,Overcast,30,2013-08-16 06:56:00
3:56 AM,68.0,64.9,90,30.03,7.0,NE,5.8,-,N/A,,Overcast,40,2013-08-16 07:56:00
4:56 AM,68.0,66.0,93,30.03,7.0,NE,5.8,-,N/A,,Overcast,50,2013-08-16 08:56:00
5:56 AM,68.0,66.0,93,30.05,6.0,NE,5.8,-,N/A,,Overcast,50,2013-08-16 09:56:00
6:07 AM,68.0,66.2,94,30.05,6.0,NE,6.9,-,N/A,,Overcast,40,2013-08-16 10:07:00
6:56 AM,68.0,66.0,93,30.06,5.0,NE,5.8,-,N/A,,Overcast,40,2013-08-16 10:56:00
7:56 AM,69.1,66.9,93,30.06,6.0,East,6.9,-,N/A,,Overcast,80,2013-08-16 11:56:00
8:56 AM,70.0,66.9,90,30.06,8.0,ENE,6.9,-,N/A,,Overcast,60,2013-08-16 12:56:00
9:56 AM,71.1,68.0,90,30.07,10.0,ENE,8.1,-,0.00,,Overcast,60,2013-08-16 13:56:00
10:56 AM,73.9,69.1,85,30.07,10.0,NE,8.1,-,N/A,,Overcast,40,2013-08-16 14:56:00
11:23 AM,75.2,69.8,83,30.07,10.0,East,8.1,-,N/A,,Overcast,80,2013-08-16 15:23:00
11:56 AM,75.9,71.1,85,30.07,10.0,East,9.2,-,N/A,,Overcast,80,2013-08-16 15:56:00
12:31 PM,78.8,71.6,78,30.06,10.0,ENE,6.9,-,N/A,,Overcast,60,2013-08-16 16:31:00
12:56 PM,78.1,72.0,81,30.05,10.0,East,10.4,-,N/A,,Overcast,80,2013-08-16 16:56:00
1:56 PM,80.1,73.0,79,30.04,10.0,East,9.2,-,N/A,,Overcast,90,2013-08-16 17:56:00
2:56 PM,79.0,73.0,82,30.03,10.0,NNE,10.4,-,N/A,,Overcast,20,2013-08-16 18:56:00
3:56 PM,77.0,72.0,84,30.02,7.0,NE,11.5,-,0.00,Rain,Light Rain,40,2013-08-16 19:56:00
4:56 PM,75.9,71.1,85,30.01,10.0,NE,12.7,-,0.03,,Overcast,50,2013-08-16 20:56:00
5:56 PM,77.0,70.0,79,30.03,10.0,NE,9.2,-,N/A,,Overcast,50,2013-08-16 21:56:00
6:56 PM,75.9,70.0,82,30.04,10.0,NE,10.4,-,N/A,,Overcast,40,2013-08-16 22:56:00
7:32 PM,75.2,69.8,83,30.04,10.0,NE,9.2,-,N/A,,Overcast,50,2013-08-16 23:32:00
7:56 PM,75.0,70.0,84,30.05,10.0,NNE,5.8,-,N/A,,Overcast,30,2013-08-16 23:56:00
8:56 PM,73.9,69.1,85,30.06,10.0,ENE,8.1,-,N/A,,Overcast,60,2013-08-17 00:56:00
9:56 PM,73.9,69.1,85,30.09,10.0,ENE,9.2,-,0.00,,Overcast,70,2013-08-17 01:56:00
10:34 PM,73.4,69.8,88,30.09,10.0,NE,6.9,-,0.00,Rain,Light Rain,50,2013-08-17 02:34:00
10:56 PM,73.9,69.1,85,30.08,10.0,NNE,8.1,-,0.00,,Overcast,30,2013-08-17 02:56:00
11:56 PM,73.0,69.1,87,30.07,10.0,ENE,6.9,-,0.00,Rain,Light Rain,60,2013-08-17 03:56:00